Naples, Italy

9:21 AM CEST on April 27, 2017 (GMT +0200)
Capodichino Mil

Weather History for LIRN - December, 2012

Change the Weather History Date:

Tuesday, December 11, 2012

  Actual Average Record
Temperature  
Mean Temperature 47 °F -  
Max Temperature 53 °F 55 °F 69 °F (2000)
Min Temperature 41 °F 40 °F 33 °F (2001)
Degree Days  
Heating Degree Days 18    
Moisture  
Dew Point 35 °F    
Average Humidity 65    
Maximum Humidity 87    
Minimum Humidity 35    
Precipitation  
Precipitation 0.00 in 0.15 in - ()
Sea Level Pressure  
Sea Level Pressure 29.81 in    
Wind  
Wind Speed 4 mph ()    
Max Wind Speed 9 mph    
Max Gust Speed -    
Visibility 6.2 miles    
Events      
Averages and records for this station are not official NWS values.
T = Trace of Precipitation, MM = Missing Value Source: Averaged Metar Reports

Daily Weather History Graph

Daily Weather History Graph

Search for Another Location

Airport or City:

Trip Planner

Search our weather history database for the weather conditions in past years. The results will help you decide how hot, cold, wet, or windy it might be!

Date:

Astronomy

Dec. 11, 2012 Rise Set
Actual Time 7:17 AM CET 4:35 PM CET
Civil Twilight 6:46 AM CET 5:05 PM CET
Nautical Twilight 6:11 AM CET 5:40 PM CET
Astronomical Twilight 5:38 AM CET 6:13 PM CET
Moon 4:51 AM CET (12/11) 2:59 PM CET (12/11)
Length of Visible Light 10h 19m
Length of Day
9h 17m
Waning Crescent, 5% of the Moon is Illuminated
Dec 11
Waning Crescent
Dec 13
New
Dec 20
First Quarter
Dec 28
Full
Jan 5
Last Quarter

Hourly Weather History & Observations

Time (CET) Temp. Windchill Dew Point Humidity Pressure Visibility Wind Dir Wind Speed Gust Speed Precip Events Conditions
12:20 AM 51.8 °F - 46.4 °F 82% 29.59 in 6.2 mi WSW 5.8 mph - N/A   Mostly Cloudy
12:50 AM 50.0 °F - 44.6 °F 82% 29.59 in 6.2 mi WNW 6.9 mph - N/A   Scattered Clouds
1:20 AM 48.2 °F - 44.6 °F 87% 29.62 in 6.2 mi WNW 4.6 mph - N/A   Mostly Cloudy
1:50 AM 46.4 °F 45.2 °F 42.8 °F 87% 29.62 in 6.2 mi West 3.5 mph - N/A   Mostly Cloudy
2:20 AM 46.4 °F 44.3 °F 41.0 °F 81% 29.62 in 6.2 mi WNW 4.6 mph - N/A   Mostly Cloudy
2:50 AM 44.6 °F 43.1 °F 39.2 °F 81% 29.62 in 6.2 mi West 3.5 mph - N/A   Mostly Cloudy
3:20 AM 44.6 °F 42.2 °F 39.2 °F 81% 29.65 in 6.2 mi NNW 4.6 mph - N/A   Scattered Clouds
3:50 AM 44.6 °F 40.2 °F 39.2 °F 81% 29.65 in 6.2 mi NW 8.1 mph - N/A   Mostly Cloudy
4:20 AM 44.6 °F 39.7 °F 39.2 °F 81% 29.65 in 6.2 mi North 9.2 mph - N/A   Mostly Cloudy
4:50 AM 44.6 °F 40.2 °F 39.2 °F 81% 29.68 in 6.2 mi NNW 8.1 mph - N/A   Mostly Cloudy
5:20 AM 42.8 °F 40.1 °F 39.2 °F 87% 29.68 in 6.2 mi North 4.6 mph - N/A   Mostly Cloudy
5:50 AM 42.8 °F 40.1 °F 39.2 °F 87% 29.71 in 6.2 mi WNW 4.6 mph - N/A   Mostly Cloudy
6:20 AM 42.8 °F 38.6 °F 37.4 °F 81% 29.74 in 6.2 mi NW 6.9 mph - N/A   Scattered Clouds
6:50 AM 42.8 °F 39.3 °F 39.2 °F 87% 29.74 in 6.2 mi North 5.8 mph - N/A   Scattered Clouds
7:20 AM 42.8 °F 39.3 °F 37.4 °F 81% 29.74 in 6.2 mi North 5.8 mph - N/A   Partly Cloudy
7:50 AM 41.0 °F - 37.4 °F 87% 29.77 in 6.2 mi Calm Calm - N/A   Partly Cloudy
8:20 AM 42.8 °F 41.1 °F 39.2 °F 87% 29.80 in - NNW 3.5 mph - N/A   Clear
8:50 AM 44.6 °F 43.1 °F 39.2 °F 81% 29.80 in - North 3.5 mph - N/A   Clear
9:20 AM 46.4 °F 44.3 °F 39.2 °F 76% 29.83 in - North 4.6 mph - N/A   Clear
9:50 AM 46.4 °F 44.3 °F 39.2 °F 76% 29.83 in - ENE 4.6 mph - N/A   Clear
10:20 AM 48.2 °F - 41.0 °F 76% 29.83 in - NNE 3.5 mph - N/A   Clear
10:50 AM 48.2 °F - 39.2 °F 71% 29.86 in - Variable 2.3 mph - N/A   Clear
11:20 AM 50.0 °F - 39.2 °F 66% 29.86 in - Variable 1.2 mph - N/A   Clear
11:50 AM 51.8 °F - 37.4 °F 58% 29.86 in - Variable 2.3 mph - N/A   Clear
12:20 PM 51.8 °F - 33.8 °F 50% 29.83 in - NNE 3.5 mph - N/A   Clear
12:50 PM 53.6 °F - 32.0 °F 44% 29.86 in - NNW 4.6 mph - N/A   Clear
1:20 PM 53.6 °F - 28.4 °F 38% 29.83 in - NE 4.6 mph - N/A   Clear
1:50 PM 53.6 °F - 26.6 °F 35% 29.83 in - North 6.9 mph - N/A   Clear
2:20 PM 53.6 °F - 26.6 °F 35% 29.86 in - NNE 5.8 mph - N/A   Clear
2:50 PM 53.6 °F - 28.4 °F 38% 29.86 in - North 4.6 mph - N/A   Clear
3:20 PM 53.6 °F - 28.4 °F 38% 29.86 in - North 4.6 mph - N/A   Clear
3:50 PM 53.6 °F - 30.2 °F 41% 29.86 in 6.2 mi Variable 1.2 mph - N/A   Partly Cloudy
4:20 PM 51.8 °F - 28.4 °F 41% 29.86 in 6.2 mi Calm Calm - N/A   Partly Cloudy
4:50 PM 48.2 °F - 30.2 °F 50% 29.89 in 6.2 mi Variable 2.3 mph - N/A   Partly Cloudy
5:20 PM 46.4 °F 44.3 °F 33.8 °F 62% 29.89 in 6.2 mi NW 4.6 mph - N/A   Scattered Clouds
5:50 PM 48.2 °F - 32.0 °F 54% 29.89 in 6.2 mi ENE 4.6 mph - N/A   Scattered Clouds
6:20 PM 48.2 °F - 30.2 °F 50% 29.89 in 6.2 mi ENE 3.5 mph - N/A   Scattered Clouds
6:50 PM 46.4 °F - 28.4 °F 50% 29.92 in 6.2 mi ENE 2.3 mph - N/A   Scattered Clouds
7:20 PM 46.4 °F - 28.4 °F 50% 29.92 in 6.2 mi Variable 2.3 mph - N/A   Scattered Clouds
7:50 PM 44.6 °F 43.1 °F 28.4 °F 53% 29.92 in 6.2 mi ENE 3.5 mph - N/A   Partly Cloudy
8:20 PM 44.6 °F 42.2 °F 26.6 °F 49% 29.92 in 6.2 mi ENE 4.6 mph - N/A   Partly Cloudy
8:50 PM 44.6 °F 41.4 °F 26.6 °F 49% 29.95 in 6.2 mi ENE 5.8 mph - N/A   Partly Cloudy
9:20 PM 42.8 °F 38.6 °F 28.4 °F 57% 29.95 in 6.2 mi NNE 6.9 mph - N/A   Partly Cloudy
9:50 PM 41.0 °F 37.1 °F 28.4 °F 61% 29.95 in 6.2 mi NE 5.8 mph - N/A   Partly Cloudy
10:20 PM 41.0 °F 37.1 °F 28.4 °F 61% 29.95 in 6.2 mi NNE 5.8 mph - N/A   Partly Cloudy
10:50 PM 41.0 °F 38.0 °F 30.2 °F 65% 29.95 in 6.2 mi North 4.6 mph - N/A   Partly Cloudy
11:20 PM 42.8 °F 38.6 °F 28.4 °F 57% 29.95 in 6.2 mi NE 6.9 mph - N/A   Partly Cloudy
11:50 PM 41.0 °F 37.1 °F 30.2 °F 65% 29.95 in - NNE 5.8 mph - N/A   Clear